Time,TemperatureF,DewpointF,PressureIn,WindDirection,WindDirectionDegrees,WindSpeedMPH,WindSpeedGustMPH,Humidity,HourlyPrecipIn,Conditions,Clouds,dailyrainin,SolarRadiationWatts/m^2,SoftwareType,DateUTC
2013-08-18 00:00:00,62.0,53.0,-100.00,East,90,0.0,-999.0,72,-99.99,,,-99.99,0.000000,,2013-08-18 04:00:00,
2013-08-18 00:42:00,62.0,53.0,-100.00,East,90,0.0,-999.0,72,-99.99,,,-99.99,0.000000,,2013-08-18 04:42:00,
2013-08-18 00:53:00,62.0,53.0,-100.00,East,90,0.0,-999.0,72,-99.99,,,-99.99,0.000000,,2013-08-18 04:53:00,
2013-08-18 01:00:00,62.0,53.0,-100.00,NW,315,0.0,-999.0,73,-99.99,,,-99.99,0.000000,,2013-08-18 05:00:00,
2013-08-18 01:43:00,62.0,53.0,-100.00,NW,315,0.0,-999.0,73,-99.99,,,-99.99,0.000000,,2013-08-18 05:43:00,
2013-08-18 01:52:00,62.0,53.0,-100.00,NW,315,0.0,-999.0,73,-99.99,,,-99.99,0.000000,,2013-08-18 05:52:00,
2013-08-18 02:00:00,60.0,53.0,-100.00,ESE,112,1.0,-999.0,77,-99.99,,,-99.99,0.000000,,2013-08-18 06:00:00,
2013-08-18 02:42:00,60.0,53.0,-100.00,ESE,112,1.0,-999.0,77,-99.99,,,-99.99,0.000000,,2013-08-18 06:42:00,
2013-08-18 02:52:00,60.0,53.0,-100.00,ESE,112,1.0,-999.0,77,-99.99,,,-99.99,0.000000,,2013-08-18 06:52:00,
2013-08-18 03:00:00,55.0,51.0,-100.00,South,180,1.0,-999.0,87,-99.99,,,-99.99,0.000000,,2013-08-18 07:00:00,
2013-08-18 03:42:00,55.0,51.0,-100.00,South,180,1.0,-999.0,87,-99.99,,,-99.99,0.000000,,2013-08-18 07:42:00,
2013-08-18 03:52:00,55.0,51.0,-100.00,South,180,1.0,-999.0,87,-99.99,,,-99.99,0.000000,,2013-08-18 07:52:00,
2013-08-18 04:00:00,54.0,52.0,-100.00,South,180,0.0,-999.0,92,-99.99,,,-99.99,0.000000,,2013-08-18 08:00:00,
2013-08-18 04:42:00,54.0,52.0,-100.00,South,180,0.0,-999.0,92,-99.99,,,-99.99,0.000000,,2013-08-18 08:42:00,
2013-08-18 04:52:00,54.0,52.0,-100.00,South,180,0.0,-999.0,92,-99.99,,,-99.99,0.000000,,2013-08-18 08:52:00,
2013-08-18 05:00:00,55.0,52.0,-100.00,WSW,247,0.0,-999.0,91,-99.99,,,-99.99,0.000000,,2013-08-18 09:00:00,
2013-08-18 05:43:00,55.0,52.0,-100.00,WSW,247,0.0,-999.0,91,-99.99,,,-99.99,0.000000,,2013-08-18 09:43:00,
2013-08-18 05:53:00,55.0,52.0,-100.00,WSW,247,0.0,-999.0,91,-99.99,,,-99.99,0.000000,,2013-08-18 09:53:00,
2013-08-18 06:00:00,54.0,52.0,-100.00,SSW,202,0.0,-999.0,91,-99.99,,,-99.99,0.000000,,2013-08-18 10:00:00,
2013-08-18 06:43:00,54.0,52.0,-100.00,SSW,202,0.0,-999.0,91,-99.99,,,-99.99,0.000000,,2013-08-18 10:43:00,
2013-08-18 06:52:00,54.0,52.0,-100.00,SSW,202,0.0,-999.0,91,-99.99,,,-99.99,0.000000,,2013-08-18 10:52:00,
2013-08-18 07:00:00,54.0,51.0,-100.00,WNW,292,0.0,-999.0,91,-99.99,,,-99.99,1.160000,,2013-08-18 11:00:00,
2013-08-18 07:42:00,54.0,51.0,-100.00,WNW,292,0.0,-999.0,91,-99.99,,,-99.99,1.160000,,2013-08-18 11:42:00,
2013-08-18 07:52:00,54.0,51.0,-100.00,WNW,292,0.0,-999.0,91,-99.99,,,-99.99,1.160000,,2013-08-18 11:52:00,
2013-08-18 09:00:00,62.0,56.0,-100.00,East,90,1.0,-999.0,80,-99.99,,,-99.99,208.800003,,2013-08-18 13:00:00,
2013-08-18 09:42:00,62.0,56.0,-100.00,East,90,1.0,-999.0,80,-99.99,,,-99.99,208.800003,,2013-08-18 13:42:00,
2013-08-18 09:52:00,62.0,56.0,-100.00,East,90,1.0,-999.0,80,-99.99,,,-99.99,208.800003,,2013-08-18 13:52:00,
2013-08-18 10:00:00,69.0,56.0,-100.00,East,90,2.0,-999.0,63,-99.99,,,-99.99,381.640015,,2013-08-18 14:00:00,
2013-08-18 10:42:00,69.0,56.0,-100.00,East,90,2.0,-999.0,63,-99.99,,,-99.99,381.640015,,2013-08-18 14:42:00,
2013-08-18 10:53:00,69.0,56.0,-100.00,East,90,2.0,-999.0,63,-99.99,,,-99.99,381.640015,,2013-08-18 14:53:00,
2013-08-18 11:00:00,74.0,55.0,-100.00,ESE,112,2.0,-999.0,51,-99.99,,,-99.99,532.440002,,2013-08-18 15:00:00,
2013-08-18 11:43:00,74.0,55.0,-100.00,ESE,112,2.0,-999.0,51,-99.99,,,-99.99,532.440002,,2013-08-18 15:43:00,
2013-08-18 11:54:00,74.0,55.0,-100.00,ESE,112,2.0,-999.0,51,-99.99,,,-99.99,532.440002,,2013-08-18 15:54:00,
2013-08-18 12:00:00,76.0,52.0,-100.00,SE,135,4.0,-999.0,43,-99.99,,,-99.99,670.479980,,2013-08-18 16:00:00,
2013-08-18 12:42:00,76.0,52.0,-100.00,SE,135,4.0,-999.0,43,-99.99,,,-99.99,670.479980,,2013-08-18 16:42:00,
2013-08-18 12:52:00,76.0,52.0,-100.00,SE,135,4.0,-999.0,43,-99.99,,,-99.99,670.479980,,2013-08-18 16:52:00,
2013-08-18 13:00:00,77.0,50.0,-100.00,ESE,112,5.0,-999.0,39,-99.99,,,-99.99,679.760010,,2013-08-18 17:00:00,
2013-08-18 13:43:00,77.0,50.0,-100.00,ESE,112,5.0,-999.0,39,-99.99,,,-99.99,679.760010,,2013-08-18 17:43:00,
2013-08-18 13:52:00,77.0,50.0,-100.00,ESE,112,5.0,-999.0,39,-99.99,,,-99.99,679.760010,,2013-08-18 17:52:00,
2013-08-18 14:00:00,78.0,51.0,-100.00,SE,135,5.0,-999.0,39,-99.99,,,-99.99,657.719971,,2013-08-18 18:00:00,
2013-08-18 14:43:00,78.0,51.0,-100.00,SE,135,5.0,-999.0,39,-99.99,,,-99.99,657.719971,,2013-08-18 18:43:00,
2013-08-18 14:52:00,78.0,51.0,-100.00,SE,135,5.0,-999.0,39,-99.99,,,-99.99,657.719971,,2013-08-18 18:52:00,
2013-08-18 15:00:00,78.0,52.0,-100.00,SE,135,4.0,-999.0,39,-99.99,,,-99.99,675.119995,,2013-08-18 19:00:00,
2013-08-18 15:42:00,78.0,52.0,-100.00,SE,135,4.0,-999.0,39,-99.99,,,-99.99,675.119995,,2013-08-18 19:42:00,
2013-08-18 15:52:00,78.0,52.0,-100.00,SE,135,4.0,-999.0,39,-99.99,,,-99.99,675.119995,,2013-08-18 19:52:00,
2013-08-18 16:00:00,81.0,51.0,-100.00,South,180,3.0,-999.0,36,-99.99,,,-99.99,767.919983,,2013-08-18 20:00:00,
2013-08-18 16:42:00,81.0,51.0,-100.00,South,180,3.0,-999.0,36,-99.99,,,-99.99,767.919983,,2013-08-18 20:42:00,
2013-08-18 16:52:00,81.0,51.0,-100.00,South,180,3.0,-999.0,36,-99.99,,,-99.99,767.919983,,2013-08-18 20:52:00,
2013-08-18 17:00:00,80.0,51.0,-100.00,SE,135,4.0,-999.0,36,-99.99,,,-99.99,599.719971,,2013-08-18 21:00:00,
2013-08-18 17:42:00,80.0,51.0,-100.00,SE,135,4.0,-999.0,36,-99.99,,,-99.99,599.719971,,2013-08-18 21:42:00,
2013-08-18 17:53:00,80.0,51.0,-100.00,SE,135,4.0,-999.0,36,-99.99,,,-99.99,599.719971,,2013-08-18 21:53:00,
2013-08-18 18:00:00,80.0,51.0,-100.00,SSW,202,3.0,-999.0,36,-99.99,,,-99.99,443.119995,,2013-08-18 22:00:00,
2013-08-18 18:42:00,80.0,51.0,-100.00,SSW,202,3.0,-999.0,36,-99.99,,,-99.99,443.119995,,2013-08-18 22:42:00,
2013-08-18 18:52:00,80.0,51.0,-100.00,SSW,202,3.0,-999.0,36,-99.99,,,-99.99,443.119995,,2013-08-18 22:52:00,
2013-08-18 19:00:00,79.0,51.0,-100.00,West,270,3.0,-999.0,37,-99.99,,,-99.99,285.359985,,2013-08-18 23:00:00,
2013-08-18 19:42:00,79.0,51.0,-100.00,West,270,3.0,-999.0,37,-99.99,,,-99.99,285.359985,,2013-08-18 23:42:00,
2013-08-18 19:52:00,79.0,51.0,-100.00,West,270,3.0,-999.0,37,-99.99,,,-99.99,285.359985,,2013-08-18 23:52:00,
2013-08-18 20:00:00,77.0,54.0,-100.00,West,270,3.0,-999.0,44,-99.99,,,-99.99,138.039993,,2013-08-19 00:00:00,
2013-08-18 20:42:00,77.0,54.0,-100.00,West,270,3.0,-999.0,44,-99.99,,,-99.99,138.039993,,2013-08-19 00:42:00,
2013-08-18 20:52:00,77.0,54.0,-100.00,West,270,3.0,-999.0,44,-99.99,,,-99.99,138.039993,,2013-08-19 00:52:00,
2013-08-18 21:00:00,70.0,56.0,-100.00,NW,315,3.0,-999.0,60,-99.99,,,-99.99,12.760000,,2013-08-19 01:00:00,
2013-08-18 21:42:00,70.0,56.0,-100.00,NW,315,3.0,-999.0,60,-99.99,,,-99.99,12.760000,,2013-08-19 01:42:00,
2013-08-18 21:52:00,70.0,56.0,-100.00,NW,315,3.0,-999.0,60,-99.99,,,-99.99,12.760000,,2013-08-19 01:52:00,
2013-08-18 22:00:00,65.0,55.0,-100.00,WNW,292,3.0,-999.0,69,-99.99,,,-99.99,0.000000,,2013-08-19 02:00:00,
2013-08-18 22:42:00,65.0,55.0,-100.00,WNW,292,3.0,-999.0,69,-99.99,,,-99.99,0.000000,,2013-08-19 02:42:00,
2013-08-18 22:52:00,65.0,55.0,-100.00,WNW,292,3.0,-999.0,69,-99.99,,,-99.99,0.000000,,2013-08-19 02:52:00,
2013-08-18 23:00:00,61.0,54.0,-100.00,South,180,1.0,-999.0,79,-99.99,,,-99.99,0.000000,,2013-08-19 03:00:00,
2013-08-18 23:42:00,61.0,54.0,-100.00,South,180,1.0,-999.0,79,-99.99,,,-99.99,0.000000,,2013-08-19 03:42:00,
2013-08-18 23:53:00,61.0,54.0,-100.00,South,180,1.0,-999.0,79,-99.99,,,-99.99,0.000000,,2013-08-19 03:53:00,